Location: Newark
(46.1500°N, 9.2833°E)
Time: 14:37:18
(UTC+00:00)

OTV 5 (USA 277) - Pass Details

Date: 17 October 2019
Orbit: 310 x 324 km, 54.5° (Epoch: 17 October)

Event Time Altitude Azimuth Distance (km) Brightness Sun altitude
Exits shadow 04:21:33 24° 326° (NW) 736 ? -14.7°
Maximum altitude 04:22:54 46° 29° (NNE) 446 ? -14.4°
Drops below altitude 10° 04:25:33 10° 105° (ESE) 1,233 ? -14.0°
Sets 04:27:33 0° 112° (ESE) 2,060 ? -13.6°
